Home   Weather   Wagga Wagga   Past weeks

Flag for Australia Past Weather in Wagga Wagga, New South Wales, Australia — Yesterday and Last 2 Weeks

Now
57 °F

Sunny.


Feels Like: 55 °F
Forecast: 48 / 52 °F
Wind: 9 mph from North

Location: Wagga Airport

Current Time: Sep 29, 2016 at 4:47:46 PM

Latest Report: Sep 29, 2016 at 4:00 PM


Visibility: 10 mi

Pressure: 29.36 "Hg

Humidity: 51%

Dew Point: 39 °F

Location of Wagga WaggaLocation

Past Weather in Wagga Wagga — Graph

°F

Wagga Wagga Temperature Yesterday

Maximum temperature yesterday: 64 °F (at 3:00 PM)
Minimum temperature yesterday: 37 °F (at 6:00 AM)
Average temperature yesterday: 52 °F

High & Low Weather Summary for the Past Weeks

 TemperatureHumidityPressure
High68 °F (Sep 24, 2:00 PM)100% (Sep 15, 9:00 AM)30.18 "Hg (Sep 15, 9:00 AM)
Low37 °F (Sep 28, 6:00 AM)41% (Sep 29, 3:00 PM)29.33 "Hg (Sep 29, 7:00 AM)
Average52 °F80%29.87 "Hg
* Reported Sep 14 3:00 PM — Sep 29 3:00 PM, Wagga Wagga, Weather by CustomWeather, © 2016

Note: Actual official high and low records may vary slightly from our data, if they occured in-between our weather recording intervals... More about our weather records

Advertising

Wagga Wagga Weather History for the Previous 24 Hours

Scroll right to see more
 ConditionsComfort  
Time TempWeatherWind HumidityBarometerVisibility
3:00 PM
Thu, Sep 29
57 °FSunny.15 mph41%29.36 "Hg10 mi
2:00 PM61 °FScattered clouds.17 mph45%29.36 "HgN/A
1:00 PM59 °FScattered showers. Partly sunny.15 mph55%29.39 "HgN/A
12:00 PM52 °FSprinkles. Partly sunny.17 mph82%29.39 "HgN/A
11:00 AM59 °FSprinkles. Scattered clouds.16 mph63%29.39 "HgN/A
10:00 AM55 °FBroken clouds.14 mph72%29.39 "HgN/A
9:00 AM54 °FLight rain. Partly sunny.7 mph88%29.36 "HgN/A
8:00 AM54 °FBroken clouds.15 mph94%29.36 "HgN/A
7:00 AM54 °FBroken clouds.15 mph94%29.33 "Hg3 mi
6:00 AM54 °FOvercast.7 mph94%29.36 "Hg4 mi
5:00 AM54 °FOvercast.12 mph94%29.39 "HgN/A
4:00 AM52 °FMostly cloudy.13 mph94%29.42 "Hg6 mi
3:00 AM54 °FMostly cloudy.10 mph77%29.47 "HgN/A
2:00 AM54 °FMostly cloudy.12 mph77%29.50 "HgN/A
1:00 AM55 °FOvercast.15 mph67%29.53 "HgN/A
12:00 AM55 °FClear.15 mph63%29.56 "HgN/A
11:00 PM
Wed, Sep 28
57 °FClear.10 mph55%29.62 "HgN/A
10:00 PM55 °FClear.10 mph67%29.65 "Hg10 mi
9:00 PM55 °FClear.13 mph72%29.65 "Hg10 mi
8:00 PM55 °FClear.8 mph72%29.68 "HgN/A
7:00 PM57 °FClear.7 mph63%29.71 "HgN/A
6:00 PM59 °FSunny.8 mph63%29.71 "HgN/A
5:00 PM63 °FPartly sunny.10 mph52%29.71 "HgN/A
4:00 PM64 °FScattered clouds.10 mph46%29.71 "HgN/A
Weather by CustomWeather, © 2016

See weather overviewHow to use our weather pages